Atlantic - Newfoundland: Past 24 Hour Conditions

 

Blanc-Sablon Airport

08:00 PM AST 30 January 2015
Disclaimer

This table is a summary of hourly weather conditions for the past 24 hours.
Please note that these observations might not always be representative of weather conditions over their associated marine area.

Date / Time
(AST)
Wind(knots) Conditions Visibility(km) Pressure(kPa) Air tempC) Relative humidity(%) Dew pointC) Wind Chill
30 January 2015
20:00 N 1 Light Snow 6 101.0 -7 79 -10 -8
19:00 NNE 2 Light Snow 6 101.1 -8 80 -11 -10
18:00 ENE 5 Light Snow 24 101.2 -8 76 -11 -12
17:00 NE 5 Mostly Cloudy 24 101.2 -8 79 -11 -13
16:00 NE 8 Cloudy 24 101.3 -9 81 -11 -15
15:00 NE 9 gust 17 Mostly Cloudy 24 101.4 -8 85 -10 -15
14:00 E 16 Cloudy 24 101.5 -8 87 -10 -17
13:00 ENE 14 Snow Grains 24 101.6 -8 90 -9 -16
12:00 E 15 gust 20 Light Snow 24 101.8 -7 88 -9 -16
11:00 E 15 Light Snow 19 101.8 -7 89 -9 -16
10:00 E 14 gust 20 Cloudy 19 101.9 -7 90 -9 -15
9:00 E 16 Mostly Cloudy 24 102.0 -8 90 -9 -16
8:00 E 16 Light Snow 16 102.1 -8 91 -9 -16
7:00 E 13 Light Snow 19 102.1 -8 92 -9 -16
6:00 NE 10 Light Snow 24 102.2 -9 90 -10 -16
5:00 ENE 8 Clear 24 102.2 -9 88 -11 -16
4:00 ENE 13 Clear 24 102.2 -10 88 -12 -19
3:00 E 13 Clear 24 102.3 -11 86 -13 -20
2:00 ENE 14 Clear 24 102.3 -11 86 -13 -20
1:00 ENE 8 Clear 24 102.3 -13 81 -15 -20
0:00 NE 6 Clear 24 102.3 -14 73 -17 -20
29 January 2015
23:00 ENE 7 Clear 24 102.4 -13 61 -19 -20
22:00 NE 8 Clear 24 102.4 -14 63 -20 -21
21:00 NE 8 Clear 24 102.4 -14 62 -19 -21
20:00 N 9 Clear 24 102.3 -13 60 -19 -21
Map of Atlantic - Newfoundland marine weather areas Southwestern Grand Banks - 44138 Banquereau - 44139 Tail of the Bank - 44140 Nickerson Bank - 44251 Northeast Burgeo Bank - 44255 Blanc-Sablon Airport Cap Whittle Chevery Natashquan Airport Heath Point Miscou Island Grand Étang Ingonish Beach North Mountain St.Paul Island J.A. Douglas McCurdy Sydney Airport Charlottetown Airport East Point North Cape Argentia Bonavista Burgeo Cape Race Corner Brook Daniel's Harbour Englee Ferolle Point La Scie Port aux Basques Rocky Harbour Sagona Island St. Anthony Airport St. John's Int'l Airport St. Lawrence Stephenville Airport Twillingate Winterland Wreckhouse Cartwright Airport Mary's Harbour Grates Cove Pool's Island Marticot Island Long Pond Îles de la Madeleine Airport
Legend:
buoy Buoy
land station Land Station

Atlantic - Newfoundland Area

Another Region

What we are doing

Date modified: